Regional Weather Roundup
Issued by NWS

Home | Current Version | Previous Version | Text Only | Print | Product List | Glossary Off
Versions: 1 2 3 4 5 6 7 8 9 10 11 12 13 14 15 16 17 18 19 20 21 22 23 24 25 26 27 28 29 30 31 32 33 34 35 36 37 38 39 40 41 42 43 44 45 46 47 48 49 50

000
ASUS43 KMKX 212011
RWRWI

WISCONSIN REGIONAL WEATHER ROUNDUP
NATIONAL WEATHER SERVICE MILWAUKEE/SULLIVAN WI
200 PM CST TUE FEB 21 2017

NOTE: "FAIR" INDICATES FEW OR NO CLOUDS BELOW 12,000 FEET WITH NO
SIGNIFICANT WEATHER AND/OR OBSTRUCTIONS TO VISIBILITY.

WIZ001-002-006>008-014>016-023>028-212100-
NORTHWEST WISCONSIN

CITY           SKY/WX    TMP DP  RH WIND       PRES   REMARKS
SUPERIOR ARPT  PTSUNNY   52  37  56 S7        29.72F
ASHLAND        SUNNY     56  34  43 S12       29.76F
HAYWARD        SUNNY     52  30  43 S13       29.78F
SIREN          MOSUNNY   54  35  50 S9        29.75F
CUMBERLAND     SUNNY     48  36  61 S9        29.78F
RICE LAKE      SUNNY     49  37  61 SE14      29.80F
CHETEK         SUNNY     50  39  64 SE12      29.80F
LADYSMITH      SUNNY     48  38  67 SE6       29.83F
EAU CLAIRE     SUNNY     54  36  50 S14       29.81F
MENOMONIE      MOSUNNY   53  42  65 S9        29.81F
NEW RICHMOND   MOSUNNY   54  40  59 S12G20    29.76F
OSCEOLA        NOT AVBL
$$

WIZ003>005-009-010-017-018-212100-
NORTH CENTRAL WISCONSIN

CITY           SKY/WX    TMP DP  RH WIND       PRES   REMARKS
MANITOWISH WTR SUNNY     51  33  48 SW6       29.80S
ARBOR VITAE    SUNNY     57  32  39 SW8         N/A
WOODRUFF       SUNNY     57  32  39 SW8         N/A
RHINELANDER    SUNNY     55  33  43 SW10      29.82F
EAGLE RIVER    SUNNY     51  29  42 W9        29.81S
LAND O LAKES   SUNNY     54  28  36 W8        29.81F
PHILLIPS       MOSUNNY   50  34  54 S7        29.81F
TOMAHAWK       SUNNY     54  31  42 CALM      29.84F
MEDFORD        SUNNY     47  40  75 S7        29.84F
MERRILL        NOT AVBL
$$

WIZ029-030-035-036-043>047-212100-
CENTRAL WISCONSIN

CITY           SKY/WX    TMP DP  RH WIND       PRES   REMARKS
WAUSAU         SUNNY     50  37  61 S5        29.84F
MOSINEE        MOSUNNY   52  39  62 S7        29.87F
MARSHFIELD     SUNNY     55  36  48 SW7       29.85F
STEVENS POINT  SUNNY     54  35  48 S5        29.87F
WAUPACA        SUNNY     61  35  37 S3        29.88F
WAUTOMA        SUNNY     61  37  41 S6        29.89F
WISC RAPIDS    SUNNY     57  40  52 S9        29.87F
CAMP DOUGLAS   MOSUNNY   61  41  48 S9        29.87F
$$

WIZ011>013-019>022-031-037>040-048>050-212100-
NORTHEAST WISCONSIN

CITY           SKY/WX    TMP DP  RH WIND       PRES   REMARKS
ANTIGO         SUNNY     50  38  62 SW5       29.85F
SHAWANO        SUNNY     58  37  45 W6        29.87F
OCONTO         SUNNY     58  38  47 W9        29.86S
STURGEON BAY   SUNNY     57  40  52 W10       29.87F
GREEN BAY      SUNNY     58  46  64 SW9       29.88F
MANITOWOC      SUNNY     57  43  59 W7        29.89S
APPLETON       SUNNY     55  37  50 SW9       29.87F
CLINTONVILLE   SUNNY     55  37  50 SW5       29.87F
OSHKOSH        SUNNY     57  44  62 VRB5      29.88F
$$

WIZ032>034-041-042-053>061-212100-
SOUTHWEST WISCONSIN

CITY           SKY/WX    TMP DP  RH WIND       PRES   REMARKS
LA CROSSE      MOSUNNY   58  41  53 S9        29.87F
SPARTA         SUNNY     60  35  38 S7        29.88F
VIROQUA        MOSUNNY   58  36  44 SW7       29.89F
BOSCOBEL       SUNNY     62  38  40 W6        29.89F
PRAIRIE DU CHI SUNNY     59  39  47 CALM      29.89F
PLATTEVILLE    SUNNY     59  45  60 SW6       29.90F
$$

WIZ056-057-062-063-064-067-068-212100-
SOUTH CENTRAL WISCONSIN

CITY           SKY/WX    TMP DP  RH WIND       PRES   REMARKS
REEDSBURG      SUNNY     60  36  39 SW6       29.88F
BARABOO/DELLS  SUNNY     60  33  35 CALM      29.89F
LONE ROCK      SUNNY     61  42  49 CALM      29.89F
MINERAL POINT  SUNNY     63  37  39 S3        29.90F
MADISON        MOSUNNY   59  33  37 S6        29.89F
MIDDLETON        N/A     63  36  37 CALM      29.90F
WATERTOWN      SUNNY     59  44  57 W3        29.89F
MONROE         SUNNY     61  28  29 SW3       29.90F
JANESVILLE     MOSUNNY   64  39  39 CALM      29.90F
$$

WIZ051-052-058>065-066-070>072-212100-
SOUTHEAST WISCONSIN

CITY           SKY/WX    TMP DP  RH WIND       PRES   REMARKS
MILWAUKEE      MOSUNNY   65  40  39 W6        29.89F
WAUKESHA       SUNNY     61  39  44 W7        29.90F
MILWAUKEE/TIMM SUNNY     63  28  27 W6        29.89F
RACINE         MOSUNNY   64  45  49 S7        29.91F
KENOSHA        MOSUNNY   63  43  48 SW6       29.89F
FOND DU LAC    SUNNY     59  42  53 VRB3      29.89F
SHEBOYGAN      SUNNY     60  38  43 NW7       29.88F
WEST BEND      SUNNY     61  34  36 NW6       29.89F
JUNEAU         SUNNY     56  44  63 SW6       29.91F
$$

LSZ147-162-212100-
LAKE SUPERIOR

STATION/POSITION TIME  TEMP    WIND        PRES    WAVE
                       AIR SEA DIR/SP/G            HT/PER
                 (UTC) (F)     (DEG/KT/KT) (MB)    (FT/S)
DEVILS ISLAND    2000   38     220/  6/  9 1008.2F
PORT WING        1930   38     350/  3/  4 1008.1F
SAXON HARBOR     1930   56     220/  5/ 13 1008.1F
$$

LMZ867-665-643>646-212100-
LAKE MICHIGAN

STATION/POSITION TIME  TEMP    WIND        PRES    WAVE
                       AIR SEA DIR/SP/G            HT/PER
                 (UTC) (F)     (DEG/KT/KT) (MB)    (FT/S)
CHAMBERS ISLAND  1940   51     190/  7/ 11 1010.5F
NORTHPORT PIER   1940   57     220/  4/ 11 1010.5F
SISTER BAY       1935   62     230/  9/ 11   N/A
KEWAUNEE LAKESHO 1942   57     270/  8/ 11 1011.4F
SHEBOYGAN LAKESH 2000   41     160/  5/  7 1012.3F
PORT WASHINGTON  1930   47      90/  3/  4 1013.2F
MILWAUKEE LAKESH 1950   48      CALM  /  1   N/A
KENOSHA   LAKESH 2000   53     140/  6/  7 1012.2
$$

TC  - TEMPERATURE IN CELSIUS
VSB - VISIBILITY IN STATUTE MILES
WCI - WIND CHILL INDEX
HX  - HEAT INDEX




USA.gov is the U.S. government's official web portal to all federal, state and local government web resources and services.